{"data":{"norad_id":49312,"intl_designator":"2021-090AK","name":"ONEWEB-0386","alt_names":[],"object_type":"PAYLOAD","status":"ACTIVE","operator":null,"country":"UK","launch_date":"2021-10-14","launch_site_code":"VOSTO","launch_vehicle":null,"mission":null,"orbit_class":"UNKNOWN","rcs_meters":null,"size_class":null,"mass_kg":null,"dimensions":null,"purposes":["comms"],"wikipedia_slug":null,"has_3d_model":false,"image_url":null,"decayed_at":null,"tle_current":{"epoch":"2026-05-24T21:33:29.842848Z","epoch_age_seconds":94568,"freshness":"FRESH","line1":"1 49312U 21090AK  26144.89826207 -.00000098  00000+0 -27355-3 0  9993","line2":"2 49312  87.9181 279.0734 0002101  94.5443 265.5930 13.20771478226741","mean_motion":13.20771478,"eccentricity":0.0002101,"inclination_deg":87.9181,"raan_deg":279.0734,"arg_perigee_deg":94.5443,"mean_anomaly_deg":265.593,"bstar":-0.00027355,"rev_number":22674,"period_min":109.0271878206,"perigee_km":1180.1863133689,"apogee_km":1183.3629882446,"semimajor_km":7559.9116508067,"source":"CELESTRAK","updated_at":"2026-05-25T13:38:22.526923Z"}}}